Time,TemperatureF,DewpointF,PressureIn,WindDirection,WindDirectionDegrees,WindSpeedMPH,WindSpeedGustMPH,Humidity,HourlyPrecipIn,Conditions,Clouds,dailyrainin,SoftwareType,DateUTC
2013-01-05 00:00:00,30.6,21.6,30.39,WNW,292,8.0,26.0,69,0.00,,OVC,0.00,VWS V14.01,2013-01-05 05:00:00,
2013-01-05 01:00:00,31.3,20.2,30.36,NW,315,7.0,26.0,63,0.00,,OVC,0.00,VWS V14.01,2013-01-05 06:00:00,
2013-01-05 02:00:00,30.6,20.2,30.37,NNE,22,9.0,21.0,65,0.00,,OVC,0.00,VWS V14.01,2013-01-05 07:00:00,
2013-01-05 03:00:00,30.8,19.7,30.38,North,0,8.0,24.0,63,0.00,,OVC,0.00,VWS V14.01,2013-01-05 08:00:00,
2013-01-05 04:00:00,32.4,17.6,30.37,North,0,8.0,21.0,54,0.00,,OVC,0.00,VWS V14.01,2013-01-05 09:00:00,
2013-01-05 05:00:00,32.4,17.2,30.34,NNE,22,6.0,14.0,53,0.00,,OVC,0.00,VWS V14.01,2013-01-05 10:00:00,
2013-01-05 06:00:00,31.0,18.0,30.36,ENE,68,2.0,8.0,58,0.00,,OVC,0.00,VWS V14.01,2013-01-05 11:00:00,
2013-01-05 07:00:00,35.3,14.5,30.39,SSE,158,0.0,4.0,42,0.00,,OVC,0.00,VWS V14.01,2013-01-05 12:00:00,
2013-01-05 08:00:00,35.7,13.2,30.41,SW,225,0.0,3.0,39,0.00,,OVC,0.00,VWS V14.01,2013-01-05 13:00:00,
2013-01-05 09:00:00,37.3,12.2,30.42,SW,225,0.0,2.0,35,0.00,,OVC,0.00,VWS V14.01,2013-01-05 14:00:00,
2013-01-05 10:00:00,39.0,12.4,30.42,SW,225,0.0,2.0,33,0.00,,OVC,0.00,VWS V14.01,2013-01-05 15:00:00,
2013-01-05 11:00:00,41.0,18.5,30.42,SW,225,0.0,2.0,40,0.00,,OVC,0.00,VWS V14.01,2013-01-05 16:00:00,
2013-01-05 12:00:00,41.0,21.3,30.39,SSW,202,1.0,6.0,45,0.00,,OVC,0.00,VWS V14.01,2013-01-05 17:00:00,
2013-01-05 13:00:00,41.2,23.5,30.37,SW,225,1.0,5.0,49,0.00,,OVC,0.00,VWS V14.01,2013-01-05 18:00:00,
2013-01-05 14:00:00,42.3,24.0,30.33,SW,225,1.0,6.0,48,0.00,,OVC,0.00,VWS V14.01,2013-01-05 19:00:00,
2013-01-05 15:00:00,41.8,24.1,30.32,SW,225,1.0,7.0,49,0.00,,OVC,0.00,VWS V14.01,2013-01-05 20:00:00,
2013-01-05 16:00:00,41.1,23.9,30.32,West,270,1.0,4.0,50,0.00,,OVC,0.00,VWS V14.01,2013-01-05 21:00:00,
2013-01-05 17:00:00,39.6,23.9,30.33,WSW,248,0.0,3.0,53,0.00,,OVC,0.00,VWS V14.01,2013-01-05 22:00:00,
2013-01-05 18:00:00,38.3,24.0,30.33,WSW,248,0.0,2.0,56,0.00,,OVC,0.00,VWS V14.01,2013-01-05 23:00:00,
2013-01-05 19:00:00,37.7,24.7,30.34,SW,225,0.0,4.0,59,0.00,,OVC,0.00,VWS V14.01,2013-01-06 00:00:00,
2013-01-05 20:00:00,37.5,25.3,30.34,SW,225,0.0,3.0,61,0.00,,OVC,0.00,VWS V14.01,2013-01-06 01:00:00,
2013-01-05 21:00:00,37.5,26.1,30.35,SW,225,1.0,4.0,63,0.00,,OVC,0.00,VWS V14.01,2013-01-06 02:00:00,
2013-01-05 22:00:00,36.6,28.4,30.32,SSW,202,1.0,7.0,72,0.00,,OVC,0.00,VWS V14.01,2013-01-06 03:00:00,
2013-01-05 23:00:00,35.9,28.8,30.29,SSE,158,0.0,3.0,75,0.00,,OVC,0.00,VWS V14.01,2013-01-06 04:00:00,